Regional Weather Roundup
Issued by NWS

Home | Current Version | Previous Version | Graphics & Text | Print | Product List | Glossary On
Versions: 1 2 3 4 5 6 7 8 9 10 11 12 13 14 15 16 17 18 19 20 21 22 23 24 25 26 27 28
000
ASUS45 KBOU 302307
RWRCO

WEATHER ROUNDUP FOR COLORADO
NATIONAL WEATHER SERVICE DENVER/BOULDER CO
500 PM MDT MON MAY 30 2016

NOTE: "FAIR" INDICATES FEW OR NO CLOUDS BELOW 12000 FEET WITH NO
SIGNIFICANT WEATHER AND/OR OBSTRUCTIONS TO VISIBILITY.

COZ001>005-013-030-031-310000-
...NORTHWEST COLORADO...

CITY           SKY/WX    TMP DP  RH WIND       PRES   REMARKS
CRAIG          PTSUNNY   68  37  32 W13       30.06F
HAYDEN         FAIR      68  36  30 NW15      30.07F
MEEKER         PTSUNNY   64  35  34 S22G36    30.09R
MOUNT WERNER   NOT AVBL
STEAMBOAT SPGS FAIR      67  35  31 W14G21    30.08F
WALDEN         NOT AVBL
$$

COZ006>008-011-310000-
...WEST CENTRAL VALLEYS...

CITY           SKY/WX    TMP DP  RH WIND       PRES   REMARKS
GRAND JUNCTION FAIR      75  27  17 VRB3      29.99F
MONTROSE       FAIR      74  32  21 N7        30.04F
EAGLE          MOSUNNY   70  34  26 E8        30.08S
RIFLE          CLOUDY    66  31  27 NW20G30   30.06R
DELTA          FAIR      77  22  13 NW18G30   30.00S
NUCLA          FAIR      72  25  17 NW13G22   30.08S
$$

COZ017>023-064>068-310000-
...SOUTHWEST COLORADO...

CITY           SKY/WX    TMP DP  RH WIND       PRES   REMARKS
DURANGO        FAIR      76  14   9 SW10G23   30.04F
CORTEZ         FAIR      75  22  13 N5        30.01F
PAGOSA SPRINGS FAIR      72   6   8 SW8G16    30.12S
TELLURIDE      FAIR      59  24  25 W15G23    30.24R
WOLF CREEK PAS FAIR      46  18  31 SW13G26   30.39F
$$

COZ009-010-012-014-032>034-037-058>063-310000-
...CENTRAL COLORADO...

CITY           SKY/WX    TMP DP  RH WIND       PRES   REMARKS
ASPEN          FAIR      64  28  25 N9        30.13F
BUENA VISTA    LGT RAIN  63  27  25 SE12      30.14R
COPPER MTN     NOT AVBL
BERTHOUD PASS  FAIR      32  25  74 W16       30.37F THUNDER WCI  21
COTTONWOOD PAS CLOUDY    59  18  20 W7G18     30.26S
GUNNISON       FAIR      61  25  25 N9        30.17R
KREMMLING      CLOUDY    50  36  57 S7        30.17R
LEADVILLE      FAIR      52  20  28 W10       30.26F
MONARCH PASS   LGT SNOW  36  27  69 W32G43    30.50F
SALIDA         FAIR      64  29  26 W18G25    30.21S
SUNLIGHT       PTSUNNY   46  30  53 W8G20     30.35R
WILKERSON PASS FAIR      50  19  29 W6        30.35F
$$

COZ069>075-310000-
...SAN LUIS VALLEY/SANGRE DE CRISTO MOUNTAINS...

CITY           SKY/WX    TMP DP  RH WIND       PRES   REMARKS
ALAMOSA        FAIR      73  16  11 W14       30.06F
LA VETA PASS   FAIR      63  21  20 SW7G17    30.25F
SAGUACHE       CLOUDY    64  28  25 N9        30.12F
$$

COZ035-036-038>040-310000-
...NORTHERN COLORADO FRONT RANGE...

CITY           SKY/WX    TMP DP  RH WIND       PRES   REMARKS
DENVER INTL AP TSTM      60  45  57 E12       30.00R
DMNS CITY PARK   N/A     67  38  35 E22       29.98S
AURORA         PTSUNNY   64  45  50 N14G29    30.01F
FRONT RANGE AP PTSUNNY   63  45  51 E6        30.04R
ERIE MUNI ARPT FAIR      72  35  25 W7        29.96S
BOULDER MUN AP FAIR      73  32  21 W16G22    29.95R
CENTENNIAL     PTSUNNY   69  36  29 NE14G22   30.00F THUNDER
BROOMFIELD     PTSUNNY   72  32  23 CALM      29.99S
FORT COLLINS   FAIR      48  45  87 E12       29.96F
LONGMONT       FAIR      74  40  29 NW6       29.96S
$$

COZ041-046-047-076>085-087-088-310000-
...PIKES PEAK/PALMER DIVIDE AND SOUTHERN FOOTHILLS...

CITY           SKY/WX    TMP DP  RH WIND       PRES   REMARKS
COLO. SPRINGS  PTSUNNY   77  29  17 N6        30.01S
A. F. ACADEMY  FAIR      72  28  20 W15G23    30.01F
SCHRIEVER AFB  NOT AVBL
ELLICOTT       NOT AVBL
FALCON         FAIR      75  24  14 W3        30.06F
FORT CARSON    FAIR      75  33  20 VRB6      29.97S
LIMON          FAIR      64  40  41 E18G28    29.98F
MONUMENT HILL  FAIR      64  34  32 N8        30.08S
TRINIDAD       FAIR      73  32  22 S8        29.98F
$$

COZ042>045-048>051-090-091-310000-
...NORTHEAST COLORADO...

CITY           SKY/WX    TMP DP  RH WIND       PRES   REMARKS
GREELEY ARPT   FAIR      70  45  40 NE12      29.96R
AKRON          CLOUDY    58  49  72 N15       29.98R
BURLINGTON     FAIR      79  50  36 SW10      29.89F
WRAY           FAIR      81  50  34 S8        29.84F
STERLING       CLOUDY    61  46  59 NE14G21   29.96R
HOLYOKE        TSTM      61  50  67 NW36G46   29.91R
FORT MORGAN    DRIZZLE   63  37  39 NW6G30    29.98R
$$

COZ086-089-092>099-310000-
...SOUTHEAST COLORADO...

CITY           SKY/WX    TMP DP  RH WIND       PRES   REMARKS
PUEBLO         FAIR      82  37  20 NE13G24   29.90R
LA JUNTA       FAIR      86  42  21 SE6       29.85F
LAMAR          FAIR      81  47  30 S16G24    29.83R
SPRINGFIELD      N/A     72  51  47 SW7       29.91F
$$




USA.gov is the U.S. government's official web portal to all federal, state and local government web resources and services.